Volver al catálogo

STARLINK-35422

ActivoComunicacionesVLEO
NORAD 66068·PAYLOAD·🇺🇸 United States

Lanzado Oct 19, 2025 desde Cape Canaveral Space Force Station

Loading…

Próximos Pases (próximas 24 horas)

TLE

ActualizadoSource: CelesTrak SupGP

Época: Sep 14, 2026, 14:18 UTC

1 66068C 25235L   26257.59631944 -.00005548  00000+0 -16374-3 0  2570
2 66068  53.1578  85.0924 0000942  95.7879 216.9054 15.34428773    17

Sigue STARLINK-35422 en tiempo real con AllMySat

Download on the App Store